Flag Weather past 2 weeks in Fresno, California, U.S.A.

Now
76 °F

Scattered clouds.


Feels Like: 78 °F
Forecast: 57 / 76 °F
Wind: 8 mph from Southeast

Location: Fresno Air Terminal

Current Time: Oct 31, 2014 at 3:29:02 PM

Latest Report: Oct 31, 2014 at 2:53 PM


Visibility: 10 mi

Pressure: 29.76 "Hg

Humidity: 40%

Dew point: 50 °F

Location of FresnoLocation

Historic Weather in Fresno — Graph

°F

Fresno temperature yesterday

Maximum temperature yesterday: 84 °F (at 3:53 PM)
Minimum temperature yesterday: 55 °F (at 3:53 AM)
Average temperature yesterday: 68 °F

Past Weeks' High & Low Weather Summary

 TemperatureHumidityPressure
High86 °F (Oct 24, 3:53 PM)81% (Oct 26, 5:53 AM)30.14 "Hg (Oct 26, 5:53 AM)
Low50 °F (Oct 27, 4:53 AM)21% (Oct 24, 4:53 PM)29.79 "Hg (Oct 31, 1:53 PM)
Average66 °F50%29.98 "Hg
* Reported Oct 16 1:53 PM — Oct 31 1:53 PM, Fresno, Weather by CustomWeather, © 2014

Note: Actual official high and low records may vary slightly from our data, if they occured in-between our weather recording intervals... More about our weather records

Advertising

Fresno weather history for previous 24 hours

 ConditionsComfort  
Time TempWeatherWind HumidityBarometerVisibility
1:53 PM
Oct 31
75 °FScattered clouds.5 mph42%29.79 "Hg10 mi
12:53 PM75 °FScattered clouds.9 mph42%29.83 "Hg10 mi
11:53 AM74 °FScattered clouds.9 mph41%29.87 "Hg10 mi
10:53 AM68 °FScattered clouds.5 mph49%29.90 "Hg9 mi
9:53 AM64 °FBroken clouds.8 mph52%29.90 "Hg10 mi
8:53 AM62 °FBroken clouds.6 mph50%29.89 "Hg8 mi
7:53 AM60 °FMostly cloudy.No wind58%29.88 "Hg10 mi
6:53 AM59 °FPassing clouds.3 mph60%29.88 "Hg10 mi
5:53 AM60 °FPassing clouds.6 mph53%29.88 "Hg10 mi
4:53 AM60 °FPassing clouds.6 mph53%29.88 "Hg10 mi
3:53 AM60 °FPassing clouds.3 mph53%29.88 "Hg10 mi
2:53 AM61 °FPassing clouds.No wind52%29.89 "Hg10 mi
1:53 AM61 °FPassing clouds.3 mph54%29.89 "Hg10 mi
12:53 AM61 °FPassing clouds.3 mph56%29.88 "Hg10 mi
11:53 PM
Oct 30
60 °FPassing clouds.6 mph58%29.88 "Hg10 mi
10:53 PM63 °FPassing clouds.6 mph56%29.88 "Hg10 mi
9:53 PM67 °FPassing clouds.3 mph49%29.88 "Hg10 mi
8:53 PM71 °FPassing clouds.7 mph42%29.87 "Hg10 mi
7:53 PM72 °FPartly cloudy.6 mph43%29.87 "Hg10 mi
6:53 PM77 °FBroken clouds.No wind33%29.86 "Hg10 mi
5:53 PM81 °FBroken clouds.3 mph29%29.85 "Hg10 mi
4:53 PM83 °FBroken clouds.6 mph24%29.85 "Hg10 mi
3:53 PM84 °FBroken clouds.5 mph24%29.84 "Hg9 mi
Weather by CustomWeather, © 2014

See weather overviewHow to use our weather pages